| time (UTC) | temp C | wind direction | speed KPH | gust KPH | rain 1hr cm | rain 24hr cm | rain mn cm | humidity % | barometer mb |
| 20260505124559 | 8 | 68 | 4.8 | 12.9 | 0.00 | 0.00 | 0.00 | 61 | 1012.1 |
| 20260505123057 | 8 | 22 | 3.2 | 14.5 | 0.00 | 0.00 | 0.00 | 61 | 1011.7 |
| 20260505121559 | 8 | 351 | 1.6 | 19.3 | 0.00 | 0.00 | 0.00 | 59 | 1011.1 |
| 20260505120111 | 8 | 51 | 6.4 | 17.7 | 0.00 | 0.00 | 0.00 | 58 | 1010.2 |
| 20260505114600 | 8 | 43 | 4.8 | 22.5 | 0.00 | 0.00 | 0.00 | 57 | 1010.4 |
| 20260505113056 | 8 | 46 | 4.8 | 22.5 | 0.00 | 0.00 | 0.00 | 56 | 1010.0 |
| 20260505111555 | 8 | 61 | 6.4 | 20.9 | 0.00 | 0.00 | 0.00 | 56 | 1009.9 |
| 20260505101554 | 9 | 50 | 8.0 | 22.5 | 0.00 | 0.00 | 0.00 | 55 | 1008.5 |
| 20260505100055 | 10 | 70 | 6.4 | 22.5 | 0.00 | 0.00 | 0.00 | 55 | 1008.3 |
| 20260505094556 | 10 | 62 | 8.0 | 22.5 | 0.00 | 0.00 | 0.00 | 54 | 1008.7 |
| 20260505093058 | 10 | 66 | 8.0 | 22.5 | 0.00 | 0.00 | 0.00 | 54 | 1008.7 |
| 20260505091601 | 10 | 55 | 8.0 | 17.7 | 0.00 | 0.00 | 0.00 | 54 | 1008.6 |
| 20260505090057 | 10 | 34 | 4.8 | 25.7 | 0.00 | 0.00 | 0.00 | 54 | 1008.7 |
| 20260505084554 | 10 | 67 | 4.8 | 17.7 | 0.00 | 0.00 | 0.00 | 54 | 1008.5 |
| 20260505083058 | 10 | 85 | 4.8 | 20.9 | 0.00 | 0.00 | 0.00 | 53 | 1008.2 |
| 20260505081606 | 10 | 37 | 4.8 | 17.7 | 0.00 | 0.00 | 0.00 | 52 | 1007.9 |
| 20260505080058 | 10 | 23 | 4.8 | 19.3 | 0.00 | 0.00 | 0.00 | 50 | 1007.3 |
| 20260505074602 | 11 | 32 | 8.0 | 22.5 | 0.00 | 0.00 | 0.00 | 48 | 1006.8 |
| 20260505073110 | 11 | 38 | 9.7 | 27.4 | 0.00 | 0.00 | 0.00 | 47 | 1006.3 |
| 20260505071600 | 11 | 54 | 11.3 | 24.1 | 0.00 | 0.00 | 0.00 | 46 | 1005.9 |
| 20260505070055 | 12 | 6 | 12.9 | 37.0 | 0.00 | 0.00 | 0.00 | 44 | 1005.9 |
| 20260505064556 | 12 | 45 | 11.3 | 35.4 | 0.00 | 0.00 | 0.00 | 44 | 1005.8 |
| 20260505063054 | 13 | 43 | 9.7 | 33.8 | 0.00 | 0.00 | 0.00 | 50 | 1005.5 |
| 20260505061559 | 13 | 36 | 9.7 | 25.7 | 0.00 | 0.00 | 0.00 | 47 | 1005.5 |
| 20260505054622 | 14 | 41 | 11.3 | 22.5 | 0.00 | 0.00 | 0.00 | 47 | 1005.3 |
| 20260505053115 | 15 | 41 | 9.7 | 37.0 | 0.00 | 0.00 | 0.00 | 47 | 1005.2 |
| 20260505051601 | 15 | 57 | 11.3 | 24.1 | 0.00 | 0.00 | 0.00 | 49 | 1005.3 |
| 20260505050113 | 15 | 39 | 9.7 | 24.1 | 0.00 | 0.00 | 0.00 | 53 | 1005.2 |
| 20260505041601 | 17 | 6 | 8.0 | 19.3 | 0.00 | 0.00 | 0.00 | 50 | 1004.1 |
| 20260505040057 | 18 | 42 | 8.0 | 29.0 | 0.00 | 0.00 | 0.00 | 44 | 1003.8 |
| 20260505034557 | 19 | 352 | 4.8 | 9.7 | 0.00 | 0.00 | 0.00 | 36 | 1003.8 |
| 20260505033100 | 20 | 70 | 3.2 | 16.1 | 0.00 | 0.00 | 0.00 | 32 | 1003.6 |
| 20260505031610 | 20 | 60 | 8.0 | 17.7 | 0.00 | 0.00 | 0.00 | 32 | 1002.7 |
| 20260505024559 | 21 | 74 | 4.8 | 14.5 | 0.00 | 0.00 | 0.00 | 27 | 1001.9 |
| 20260505023119 | 22 | 74 | 6.4 | 14.5 | 0.00 | 0.00 | 0.00 | 27 | 1001.6 |
| 20260505021558 | 22 | 70 | 8.0 | 17.7 | 0.00 | 0.00 | 0.00 | 25 | 1001.4 |
| 20260505020058 | 23 | 104 | 6.4 | 17.7 | 0.00 | 0.00 | 0.00 | 24 | 1001.3 |
| 20260505014604 | 23 | 68 | 6.4 | 20.9 | 0.00 | 0.00 | 0.00 | 23 | 1001.2 |
| 20260505013109 | 24 | 57 | 6.4 | 17.7 | 0.00 | 0.00 | 0.00 | 22 | 1001.1 |
| 20260505011557 | 25 | 75 | 6.4 | 14.5 | 0.00 | 0.00 | 0.00 | 21 | 1001.0 |
| 20260505004559 | 26 | 70 | 3.2 | 6.4 | 0.00 | 0.00 | 0.00 | 20 | 1000.9 |
| 20260505003057 | 26 | 60 | 1.6 | 6.4 | 0.00 | 0.00 | 0.00 | 20 | 1001.0 |
| 20260505001600 | 26 | 0 | 1.6 | 11.3 | 0.00 | 0.00 | 0.00 | 19 | 1001.1 |
| 20260505000115 | 26 | 0 | 1.6 | 6.4 | 0.00 | 0.00 | 0.00 | 19 | 1001.3 |
| 20260504234558 | 27 | 35 | 1.6 | 8.0 | 0.00 | 0.00 | 0.00 | 19 | 1001.2 |
| 20260504233100 | 27 | 72 | 4.8 | 12.9 | 0.00 | 0.00 | 0.00 | 18 | 1001.3 |
| 20260504231557 | 27 | 55 | 6.4 | 14.5 | 0.00 | 0.00 | 0.00 | 19 | 1001.4 |
| 20260504230106 | 27 | 92 | 6.4 | 16.1 | 0.00 | 0.00 | 0.00 | 19 | 1001.6 |
| 20260504224556 | 27 | 79 | 4.8 | 12.9 | 0.00 | 0.00 | 0.00 | 18 | 1001.9 |
| 20260504223104 | 27 | 50 | 4.8 | 14.5 | 0.00 | 0.00 | 0.00 | 18 | 1001.7 |
| 20260504221603 | 27 | 68 | 4.8 | 14.5 | 0.00 | 0.00 | 0.00 | 17 | 1001.9 |
| 20260504220059 | 27 | 54 | 3.2 | 12.9 | 0.00 | 0.00 | 0.00 | 19 | 1002.0 |
| 20260504214558 | 27 | 73 | 1.6 | 20.9 | 0.00 | 0.00 | 0.00 | 18 | 1002.1 |
| 20260504213105 | 27 | 54 | 3.2 | 12.9 | 0.00 | 0.00 | 0.00 | 17 | 1002.0 |
| 20260504211605 | 27 | 62 | 4.8 | 19.3 | 0.00 | 0.00 | 0.00 | 17 | 1002.2 |
| 20260504210058 | 27 | 40 | 4.8 | 14.5 | 0.00 | 0.00 | 0.00 | 20 | 1002.3 |
| 20260504204601 | 27 | 72 | 9.7 | 19.3 | 0.00 | 0.00 | 0.00 | 20 | 1002.5 |
| 20260504203106 | 28 | 33 | 6.4 | 19.3 | 0.00 | 0.00 | 0.00 | 19 | 1002.2 |
| 20260504201554 | 30 | 337 | 1.6 | 8.0 | 0.00 | 0.00 | 0.00 | 12 | 1002.6 |
| 20260504200059 | 31 | 199 | 3.2 | 9.7 | 0.00 | 0.00 | 0.00 | 12 | 1002.8 |
| 20260504194559 | 31 | 117 | 1.6 | 8.0 | 0.00 | 0.00 | 0.00 | 12 | 1002.9 |
| 20260504193056 | 31 | 222 | 8.0 | 17.7 | 0.00 | 0.00 | 0.00 | 12 | 1003.1 |
| 20260504191607 | 32 | 184 | 3.2 | 9.7 | 0.00 | 0.00 | 0.00 | 12 | 1003.3 |
| 20260504190117 | 31 | 203 | 6.4 | 14.5 | 0.00 | 0.00 | 0.00 | 12 | 1003.6 |
| 20260504184555 | 31 | 168 | 4.8 | 9.7 | 0.00 | 0.00 | 0.00 | 12 | 1003.8 |
| 20260504183059 | 31 | 208 | 0.0 | 14.5 | 0.00 | 0.00 | 0.00 | 13 | 1003.8 |
| 20260504181558 | 31 | 335 | 1.6 | 6.4 | 0.00 | 0.00 | 0.00 | 14 | 1004.1 |
| 20260504174556 | 29 | 255 | 4.8 | 16.1 | 0.00 | 0.00 | 0.00 | 16 | 1004.7 |
| 20260504173057 | 28 | 212 | 6.4 | 9.7 | 0.00 | 0.00 | 0.00 | 17 | 1004.9 |
| 20260504171555 | 28 | 239 | 3.2 | 11.3 | 0.00 | 0.00 | 0.00 | 17 | 1005.1 |